Home > Weather > Niš > Past weeks

Flag for Serbia Past Weather in Niš, Serbia — Yesterday and Last 2 Weeks

Now
86 °F

Passing clouds.


Feels Like: 87 °F
Forecast: 63 / 91 °F
Wind: 14 mph from Northwest

Location: Nis Airport

Current Time: Jul 30, 2016 at 5:07:47 PM

Latest Report: Jul 30, 2016 at 4:30 PM


Visibility: N/A

Pressure: 29.95 "Hg

Humidity: 49%

Dew Point: 64 °F

Location of NišLocation

Past Weather in Niš — Graph

°F

Niš Temperature Yesterday

Maximum temperature yesterday: 84 °F (at 4:00 PM)
Minimum temperature yesterday: 64 °F (at 5:30 AM)
Average temperature yesterday: 73 °F

High & Low Weather Summary for the Past Weeks

 TemperatureHumidityPressure
High93 °F (Jul 23, 2:30 PM)100% (Jul 15, 8:00 PM)30.09 "Hg (Jul 15, 8:00 PM)
Low57 °F (Jul 16, 2:30 AM)21% (Jul 22, 6:30 PM)29.80 "Hg (Jul 15, 10:30 PM)
Average72 °F74%30.00 "Hg
* Reported Jul 15 4:00 PM — Jul 30 4:00 PM, Niš, Weather by CustomWeather, © 2016

Note: Actual official high and low records may vary slightly from our data, if they occured in-between our weather recording intervals... More about our weather records

Advertising

Niš Weather History for the Previous 24 Hours

Scroll right to see more
 ConditionsComfort  
Time TempWeatherWind HumidityBarometerVisibility
4:00 PM
Sat, Jul 30
86 °FPassing clouds.12 mph49%29.95 "HgN/A
3:30 PM86 °FPassing clouds.12 mph49%29.98 "HgN/A
3:00 PM86 °FPassing clouds.14 mph49%29.98 "HgN/A
2:30 PM86 °FPassing clouds.12 mph49%29.98 "HgN/A
2:00 PM86 °FPassing clouds.14 mph52%29.98 "HgN/A
1:30 PM84 °FPassing clouds.14 mph55%30.01 "HgN/A
1:00 PM84 °FPassing clouds.10 mph55%30.01 "HgN/A
12:30 PM84 °FPassing clouds.12 mph58%30.01 "HgN/A
12:00 PM82 °FPassing clouds.13 mph62%30.01 "HgN/A
11:30 AM82 °FPassing clouds.10 mph62%30.01 "HgN/A
11:00 AM81 °FScattered clouds.9 mph70%30.04 "HgN/A
10:30 AM79 °FScattered clouds.8 mph79%30.04 "HgN/A
10:00 AM75 °FScattered clouds.2 mph89%30.04 "Hg5 mi
9:30 AM75 °FBroken clouds.1 mph89%30.04 "Hg5 mi
9:00 AM73 °FBroken clouds.1 mph89%30.04 "Hg4 mi
8:30 AM72 °FBroken clouds.1 mph94%30.04 "Hg4 mi
8:00 AM70 °FFog.1 mph100%30.04 "Hg3 mi
7:30 AM70 °FFog.2 mph94%30.01 "Hg3 mi
7:00 AM68 °FFog.1 mph100%30.01 "Hg2 mi
6:30 AM66 °FFog.2 mph100%30.01 "Hg2 mi
6:00 AM66 °FFog.2 mph100%30.01 "Hg2 mi
5:30 AM66 °FFog.2 mph100%30.01 "Hg2 mi
5:00 AM66 °FFog.2 mph100%30.01 "Hg2 mi
4:30 AM66 °FFog.3 mph100%30.01 "Hg3 mi
4:00 AM66 °FFog.1 mph100%30.01 "Hg3 mi
3:30 AM66 °FFog.2 mph100%29.98 "Hg3 mi
3:00 AM66 °FFog.1 mph100%29.98 "Hg3 mi
2:30 AM68 °FFog.1 mph100%29.98 "Hg3 mi
2:00 AM68 °FFog.1 mph100%29.98 "Hg3 mi
1:30 AM66 °FClear.1 mph100%29.98 "Hg4 mi
1:00 AM68 °FClear.2 mph100%29.98 "Hg4 mi
12:30 AM70 °FClear.1 mph94%29.98 "Hg5 mi
12:00 AM70 °FClear.1 mph94%29.98 "Hg5 mi
11:30 PM
Fri, Jul 29
70 °FClear.1 mph94%29.98 "Hg5 mi
11:00 PM70 °FClear.2 mph94%29.98 "Hg10 mi
10:30 PM72 °FClear.3 mph88%29.98 "Hg10 mi
10:00 PM72 °FClear.2 mph88%29.95 "Hg10 mi
9:30 PM73 °FClear.6 mph83%29.95 "Hg10 mi
9:00 PM75 °FClear.7 mph74%29.95 "Hg10 mi
8:30 PM75 °FSunny.1 mph74%29.95 "Hg10 mi
8:00 PM77 °FSunny.2 mph69%29.95 "Hg10 mi
7:30 PM79 °FSunny.3 mph70%29.95 "Hg10 mi
7:00 PM81 °FPassing clouds.5 mph62%29.92 "HgN/A
6:30 PM82 °FPassing clouds.8 mph55%29.92 "HgN/A
6:00 PM82 °FScattered clouds.10 mph58%29.92 "HgN/A
5:30 PM82 °FScattered clouds.9 mph58%29.92 "HgN/A
5:00 PM84 °FScattered clouds.8 mph55%29.92 "HgN/A
Weather by CustomWeather, © 2016

See weather overviewHow to use our weather pages